Location: Aubervilles
(48.9167°N, 2.3833°E)
Time: 14:30:00
(UTC+00:00)

Cosmos 2058 Rocket - Pass Details

Date: 03 February 2023
Orbit: 610 x 637 km, 82.5° (Epoch: 29 March)

Event Time Altitude Azimuth Distance (km) Brightness Sun altitude
Rises 18:00:04 0° 357° (N) 2,898 6.4 -11.6°
Reaches altitude 10° 18:02:28 10° 6° (N) 1,992 5.5 -12.0°
Maximum altitude 18:06:31 35° 73° (ENE) 1,009 3.6 -12.7°
Drops below altitude 10° 18:10:34 10° 140° (SE) 1,992 5.4 -13.3°
Sets 18:12:57 0° 149° (SSE) 2,899 6.3 -13.7°
